User: anonymous   Login
Location: Oshawa
(43.9000°N, 78.8670°W)
Time: 15:16:57
(UTC-05:00)
Language:

Cosmos 1953 Rocket - Orbit

View from above orbital plane
View from above orbital plane
View from above satellite
View from above satellite

Ground track
Ground track

The orbit data is extracted from the following two-line orbital elements,

1 19211U 88050B   15062.53219838  .00000553  00000-0  65494-4 0  9993
2 19211 082.5239 264.7720 0021952 357.8496 025.0164 14.82659316442805
Epoch (UTC): 03 March 2015 12:46:21
Eccentricity: 0.0021952
inclination: 82.5239°
perigee height: 605 km
apogee height: 636 km
right ascension of ascending node: 264.7720°
argument of perigee: 357.8496°
revolutions per day: 14.82659316
mean anomaly at epoch: 25.0164°
orbit number at epoch: 44280

The dashed part of the orbit path shows where the satellite is in the earth's shadow,  

DLR